Location: Spruce Knob
(38.6995°N, 79.5330°W)
Time: 13:34:06
(UTC-04:00)

BEESAT - Pass Details

Date: 31 March 2023
Orbit: 696 x 706 km, 98.5° (Epoch: 02 June)

Event Time Altitude Azimuth Distance (km) Brightness Sun altitude
Rises 21:59:44 0° 19° (NNE) 3,102 ? -26.5°
Reaches altitude 10° 22:02:05 10° 25° (NNE) 2,178 ? -26.9°
Enters shadow 22:02:58 15° 29° (NNE) 1,843 ? -27.0°
